Theta_e
358 359 361 361 360 362 361 362 353 352 351 335 339 347 351 363 360 363 362 361 360 356 354 356 355 352 356 354 354 352 351 357 356 352 351 358 357 353 355 350 349 353 355 357 358 356 355 356 357 357 356 356 357 356 356 356 356 357 356 356 356 355 355 355 356 356 356 355 354 353 345 339 336 338 342 346 351 351 351 352 354 356 356 356 356 354 351 352 351 346 345 345 343 345 346 348 349
359 360 361 361 361 362 360 360 350 340 339 332 341 350 354 364 360 361 361 361 359 353 353 354 354 353 353 352 352 353 355 355 355 356 357 357 354 354 353 347 348 353 356 357 357 356 355 356 356 357 355 355 356 357 356 356 357 357 356 356 355 354 354 354 356 356 356 355 354 354 350 344 337 337 341 343 346 348 349 350 353 356 355 355 354 351 351 351 347 343 344 343 342 344 345 346 345
359 359 360 361 362 361 359 358 345 331 331 331 340 355 361 362 360 361 359 360 357 352 354 354 355 354 353 355 354 356 357 353 353 354 354 355 354 354 351 346 348 354 356 356 357 356 355 355 355 355 354 353 354 356 356 356 357 356 355 355 355 354 353 354 355 355 355 355 354 353 353 350 344 338 338 341 341 343 344 346 352 355 354 354 352 350 351 348 343 340 342 342 340 341 342 343 343
359 360 360 361 361 358 358 357 347 333 329 331 338 357 364 361 361 360 359 358 355 353 354 355 356 353 354 357 354 356 358 355 356 355 354 355 354 353 351 348 350 355 356 356 357 356 355 355 354 354 354 353 353 354 355 355 357 356 355 355 355 355 354 355 354 355 355 355 355 354 354 353 350 343 338 338 338 341 343 347 351 353 354 354 351 349 349 345 340 337 338 340 339 339 339 339 340
360 360 359 360 359 356 358 353 349 340 335 338 341 357 364 360 362 360 359 356 354 354 354 355 355 352 352 354 353 357 357 355 357 357 356 355 354 354 352 350 351 354 356 356 356 356 355 354 354 353 354 354 354 353 354 355 355 355 356 355 355 355 355 355 353 353 354 354 355 354 355 355 353 350 345 341 341 344 347 351 351 351 354 353 351 349 346 343 339 336 335 337 337 336 337 337 337
360 361 359 360 357 356 356 344 342 342 350 357 350 357 362 360 362 358 356 355 353 354 355 355 354 352 354 353 352 355 355 356 357 357 357 355 355 354 352 350 351 354 357 356 356 356 354 353 354 353 354 354 353 354 354 354 354 354 355 355 355 355 354 354 353 353 352 353 354 354 355 355 354 353 351 349 349 351 352 353 351 353 354 353 351 347 344 341 339 336 333 334 336 335 336 336 336
359 361 359 359 355 356 352 339 340 344 355 366 358 360 361 361 362 358 357 356 355 353 354 354 351 353 355 353 354 354 355 357 357 356 356 355 355 355 353 351 351 354 357 357 355 355 353 352 353 353 353 354 353 353 354 353 354 353 354 355 355 354 354 353 352 353 352 352 354 353 354 354 354 354 354 353 353 354 354 354 354 355 353 351 349 345 342 342 341 337 333 334 336 337 336 336 336
360 360 357 355 352 353 347 339 346 352 356 362 362 362 362 361 361 360 359 357 359 356 354 353 350 354 355 353 356 356 357 358 358 358 356 355 355 354 354 353 352 354 357 357 355 354 353 352 352 353 352 352 354 353 353 354 354 354 354 355 355 355 355 354 353 353 353 353 354 353 353 353 354 353 354 354 353 354 354 353 354 354 351 349 348 344 342 343 343 336 331 335 337 337 337 337 337
360 359 355 353 350 347 343 341 347 354 360 361 362 362 362 362 361 361 359 357 360 358 355 355 352 356 356 353 354 355 358 359 358 357 356 356 356 354 354 353 352 354 357 358 356 352 352 353 352 352 352 352 353 353 352 354 354 354 354 354 354 354 355 355 353 352 352 353 353 353 354 354 353 353 354 354 354 355 354 352 353 352 349 348 346 345 344 343 342 333 329 335 337 337 337 337 338
360 355 354 352 345 336 333 341 346 352 359 360 362 362 363 361 361 361 359 357 358 358 357 355 352 355 355 354 354 354 358 358 358 357 357 357 357 355 355 354 353 354 356 357 357 353 352 352 352 352 352 352 353 353 352 352 353 352 353 354 354 354 355 354 353 351 352 352 352 354 354 354 353 353 353 354 354 354 353 353 353 351 348 347 347 344 344 343 340 332 329 335 337 338 338 339 339
355 348 352 345 334 328 327 338 346 354 357 357 360 360 361 360 358 358 357 356 354 357 357 357 356 353 354 354 355 356 358 358 358 358 358 358 356 355 355 355 354 354 355 356 356 354 354 354 352 351 352 353 354 353 352 352 352 352 352 353 353 353 354 354 353 352 353 353 352 354 354 353 352 352 353 354 354 353 353 353 353 352 349 347 348 346 345 344 341 334 330 334 338 339 339 340 341
347 343 350 338 330 332 334 340 346 357 359 358 360 360 360 356 358 358 357 355 354 355 355 357 355 352 354 354 355 357 359 358 358 358 357 357 356 355 355 355 354 354 354 355 356 355 355 355 354 351 351 352 354 353 352 352 352 353 353 352 352 353 353 353 353 353 353 353 352 353 353 353 353 353 354 353 353 353 353 352 352 352 352 349 349 348 346 346 344 339 333 334 339 340 340 341 342
343 344 345 335 335 342 341 342 348 357 356 358 362 361 358 356 360 358 357 356 356 359 355 352 351 353 356 355 357 355 357 358 357 357 357 356 354 355 355 355 354 354 354 354 356 357 354 354 354 353 351 351 353 353 352 353 353 353 353 352 352 352 352 352 352 353 353 352 352 352 351 353 354 353 354 354 353 353 353 353 352 351 353 353 351 351 349 347 345 342 338 338 340 340 341 342 343
343 345 345 339 341 344 342 341 346 347 346 356 363 361 359 358 360 356 357 359 358 359 354 350 350 354 355 356 357 353 355 358 357 357 355 355 354 355 354 354 354 354 354 354 357 358 354 353 354 353 352 352 353 353 353 352 352 353 354 353 352 352 352 352 352 352 352 352 352 352 351 352 353 353 354 354 353 354 353 352 353 351 353 354 353 353 352 349 345 343 342 340 341 342 344 343 344
342 344 348 341 337 338 339 342 346 342 342 358 364 360 361 359 358 357 359 362 358 353 352 352 351 356 354 356 357 352 356 357 357 356 355 354 353 354 354 354 354 354 354 355 357 358 355 352 353 352 353 353 352 354 354 352 352 353 353 352 353 352 352 352 352 352 352 352 352 352 352 352 352 353 353 353 354 353 352 351 351 352 353 353 352 352 352 352 348 344 343 342 343 346 347 346 348
341 344 347 337 331 330 334 344 347 341 343 358 362 360 362 359 357 358 358 357 356 350 354 355 351 355 353 352 355 355 357 357 357 356 354 354 354 354 354 354 354 354 354 354 356 358 357 353 352 351 353 354 351 352 353 352 353 353 352 351 352 352 352 352 352 352 352 352 353 352 351 352 351 352 353 353 353 352 352 351 351 352 352 352 352 350 351 352 349 346 345 345 346 348 349 349 351
341 347 343 330 330 329 335 345 343 340 345 358 361 359 361 360 357 357 353 354 357 354 355 355 352 354 352 352 355 357 357 357 357 356 354 353 354 354 354 355 354 354 354 355 356 358 358 355 353 351 353 353 350 351 352 350 351 352 352 352 351 351 351 351 351 351 351 352 352 352 351 351 352 353 353 352 352 352 351 351 351 352 352 351 350 350 351 351 351 350 348 348 347 349 351 351 352
341 345 337 327 332 334 339 348 344 346 351 355 361 359 359 361 358 355 354 356 357 356 357 357 355 354 354 355 356 357 357 357 357 354 354 354 353 354 354 354 354 355 355 355 356 357 358 357 356 355 353 353 351 352 351 350 350 352 353 352 352 350 351 350 351 351 351 352 352 351 350 349 353 353 351 351 352 352 351 350 351 351 351 350 350 351 351 350 351 352 350 350 349 349 350 351 352
339 340 335 331 336 337 340 348 349 352 353 355 361 360 359 359 358 355 358 360 356 358 361 360 358 355 354 357 357 357 358 357 357 354 354 354 354 353 353 354 354 354 354 355 356 357 359 357 357 357 354 353 353 352 351 351 351 351 353 352 352 351 352 351 352 353 351 352 351 352 352 350 353 354 352 352 352 352 350 349 351 349 349 351 351 351 351 350 351 351 350 350 349 350 351 349 350
339 338 336 335 338 339 343 348 353 356 354 358 360 360 361 358 357 355 357 360 357 359 360 359 361 358 354 355 356 357 357 357 356 355 354 353 354 353 353 354 354 354 354 355 356 356 358 358 358 358 357 355 354 352 350 352 352 351 352 352 352 351 351 352 352 352 351 351 351 352 355 353 353 354 353 352 351 352 350 350 351 349 349 351 350 350 351 351 351 350 350 350 350 351 350 347 348
336 336 335 337 338 340 344 347 354 356 355 358 359 360 361 358 357 355 356 358 357 358 356 358 361 360 356 354 355 357 357 356 356 355 354 353 354 353 354 354 353 354 354 355 356 356 357 358 358 358 359 357 354 352 350 351 352 351 351 351 352 351 350 351 351 351 351 351 351 352 352 353 353 353 352 350 351 352 351 351 351 351 351 351 349 350 351 350 350 351 350 350 351 350 348 347 349
334 335 334 336 338 341 342 347 356 358 356 358 360 360 359 358 357 354 354 356 355 353 351 353 357 358 357 353 355 356 356 355 356 356 355 355 354 353 353 353 353 353 354 355 355 355 356 357 357 358 359 358 356 354 353 352 351 350 351 351 351 351 350 350 350 350 351 350 350 350 350 353 352 351 353 350 350 352 352 352 351 351 351 350 350 350 350 350 350 351 351 351 352 350 348 349 350
333 333 332 335 338 340 342 350 358 358 356 359 361 360 356 356 357 355 354 353 352 348 347 349 353 357 357 356 356 353 353 354 356 357 356 355 354 352 352 352 353 353 354 355 355 355 355 355 356 357 358 358 357 356 355 354 352 351 352 351 351 351 350 350 350 348 350 350 349 350 351 354 352 350 353 351 350 352 352 351 350 350 350 350 351 351 350 351 351 350 350 351 352 351 349 350 350
331 331 330 334 340 342 344 351 358 358 357 359 360 358 357 357 357 357 354 352 350 348 347 348 352 356 356 356 355 352 352 354 356 356 355 355 354 352 352 352 353 354 355 355 355 355 354 355 356 356 357 357 357 357 356 355 354 353 352 351 350 351 350 349 349 348 348 349 348 350 351 351 351 350 351 349 349 352 351 351 350 351 351 351 352 352 351 351 350 349 349 351 352 351 350 351 350
327 327 328 335 343 347 349 353 357 359 360 360 358 357 359 357 355 355 353 350 351 350 347 349 353 355 355 355 355 354 352 354 357 356 356 356 354 353 352 353 354 354 354 355 355 354 354 354 355 355 356 356 356 356 355 355 354 353 353 351 351 350 349 349 349 348 348 348 348 350 350 350 349 348 347 347 349 351 352 350 350 350 350 352 353 352 352 350 349 348 349 351 352 352 350 349 349
325 326 330 339 346 350 354 358 359 360 361 360 359 360 361 357 353 355 353 349 350 349 347 351 355 355 356 356 355 355 352 353 357 356 356 356 355 354 353 353 354 354 354 355 355 355 355 354 354 354 355 356 355 355 354 355 354 353 353 351 351 350 349 350 349 348 349 349 349 349 350 349 348 346 346 347 348 351 352 351 350 350 350 350 352 352 353 351 349 349 351 352 351 352 350 348 349
325 327 335 344 349 353 355 359 360 357 360 360 359 359 360 359 355 354 352 349 348 348 349 353 356 355 357 356 354 355 355 355 357 357 357 357 357 355 354 353 353 354 354 354 355 355 356 354 354 354 354 355 355 355 354 354 354 353 353 351 350 349 349 351 350 349 349 349 349 350 350 350 348 346 346 347 349 352 352 351 351 351 351 350 351 352 352 350 349 351 351 351 349 350 350 349 350
326 328 337 346 349 354 355 360 360 357 360 359 359 360 361 362 358 356 352 348 348 348 351 353 354 355 356 356 355 355 356 357 357 357 359 358 357 356 355 354 354 355 354 354 356 356 356 355 354 354 354 355 354 354 354 354 354 353 353 352 350 349 349 349 350 350 349 349 349 350 351 351 350 348 347 349 350 351 351 351 351 351 351 351 352 350 349 349 351 352 350 350 349 349 350 350 351
326 328 334 342 349 356 358 361 359 357 360 359 360 355 357 366 361 356 352 347 349 350 352 353 353 355 354 356 355 354 356 357 358 357 358 358 357 356 356 356 355 355 354 354 356 356 356 355 355 356 355 355 354 353 354 354 354 354 353 352 351 350 349 348 349 350 350 350 350 351 352 350 351 350 349 351 351 351 351 351 351 351 351 352 351 349 348 350 351 351 350 349 349 349 352 351 351
327 328 330 333 336 348 358 359 358 359 360 362 358 337 338 361 361 355 353 348 350 350 352 352 353 355 352 354 353 353 355 356 358 357 357 358 357 357 356 356 355 355 356 355 355 357 356 356 356 356 355 355 355 353 354 354 353 353 353 352 352 351 350 349 349 350 350 350 351 352 352 349 351 352 351 353 352 350 351 350 350 350 350 352 353 351 350 350 349 349 347 347 349 351 352 350 349
327 326 328 329 322 332 352 353 355 361 357 362 356 330 328 353 357 356 357 353 351 350 351 352 354 356 352 354 352 351 353 354 356 356 357 358 357 357 357 357 357 357 358 356 356 357 357 358 357 356 356 355 355 354 354 354 353 353 351 351 352 352 351 349 350 350 349 349 350 351 351 351 352 353 353 354 352 351 351 350 350 350 352 352 353 351 349 348 346 345 346 346 348 350 351 351 350
329 321 319 325 319 327 349 349 352 359 356 361 353 331 329 347 352 353 358 356 352 349 350 350 355 357 353 353 353 350 352 353 355 355 355 356 357 357 357 358 358 357 357 355 355 357 359 358 356 356 356 356 355 355 354 354 353 352 351 349 351 351 351 350 350 350 350 349 349 351 352 352 353 355 355 354 352 351 351 351 352 352 353 353 351 350 347 345 345 345 347 347 346 349 350 350 349
327 320 313 319 318 322 336 343 351 353 353 359 352 338 334 343 351 352 356 357 352 349 349 349 355 357 354 353 352 351 351 351 353 354 354 355 356 357 357 358 356 355 355 353 354 355 358 358 357 356 355 356 356 355 355 353 353 352 350 349 349 349 349 350 350 350 349 350 350 351 352 352 353 355 355 354 352 351 352 352 353 353 353 351 349 349 347 344 345 346 348 349 350 350 350 348 347
319 321 316 319 322 319 321 335 349 349 348 351 351 350 343 342 350 352 355 355 350 348 347 349 354 355 354 353 352 352 352 351 351 353 355 354 355 356 357 357 356 358 355 353 354 354 356 358 357 357 356 357 357 356 354 353 353 351 350 349 349 348 348 349 350 350 350 350 351 351 352 353 353 355 355 355 354 352 353 353 352 352 351 350 348 347 346 345 347 348 350 353 355 354 351 348 347
314 317 315 317 321 320 320 329 340 341 343 344 344 347 347 344 346 351 355 354 350 348 346 347 351 352 353 353 352 353 352 352 352 354 355 353 354 355 356 356 356 360 359 356 357 356 357 359 358 358 357 357 357 357 354 353 352 351 350 349 348 348 348 349 349 350 350 350 352 351 351 352 353 354 354 354 356 353 353 352 351 351 349 350 348 346 347 348 351 352 352 354 355 355 353 350 349
318 318 318 316 316 319 325 330 332 333 335 339 339 338 341 341 340 347 353 354 351 349 348 348 350 350 353 355 355 355 353 353 355 355 355 354 354 355 356 356 355 357 359 359 358 357 358 359 359 358 358 357 357 357 355 353 352 351 349 349 348 348 347 348 348 349 349 349 351 351 350 350 352 354 352 354 355 353 352 351 350 350 349 350 349 348 350 351 354 355 355 356 355 354 353 351 350
322 320 319 318 316 318 329 334 333 338 333 330 337 338 337 338 337 344 353 355 354 351 350 351 351 351 353 357 356 355 354 354 356 357 358 357 356 357 357 357 356 355 357 359 358 358 359 359 359 359 358 357 357 356 355 353 352 351 350 349 348 348 348 348 348 348 348 348 349 349 349 349 351 352 352 354 354 352 351 350 350 350 350 350 350 351 353 354 356 356 356 356 355 353 351 349 348
323 320 317 317 318 319 331 338 335 340 334 327 338 340 337 339 337 343 353 355 353 351 351 351 353 353 353 357 357 356 355 354 358 360 361 360 359 360 359 358 358 356 357 359 359 359 361 359 359 359 358 357 356 355 355 353 352 351 350 349 347 347 348 348 348 348 348 349 349 349 349 349 350 351 351 353 353 352 351 351 350 351 350 351 352 354 356 357 357 356 356 355 353 353 352 348 348
322 321 317 314 319 320 330 342 342 341 334 327 336 336 333 339 338 344 354 354 351 350 351 351 352 354 355 356 356 356 355 355 359 361 362 361 361 362 360 359 359 357 357 359 359 361 361 359 359 360 359 358 357 356 355 354 352 352 350 349 347 347 348 348 349 349 349 349 349 349 349 350 351 351 351 352 352 352 352 350 350 351 351 352 354 356 357 357 357 356 355 354 352 352 351 350 349
321 320 315 313 320 317 318 333 346 346 337 331 337 336 335 338 337 344 353 352 352 352 353 353 352 353 356 356 354 355 354 356 360 361 361 361 361 362 360 359 358 357 357 357 359 361 361 360 360 361 360 359 358 356 355 354 353 352 351 349 348 347 347 348 349 349 349 349 349 350 350 350 351 352 352 352 352 352 352 350 349 350 351 353 354 355 356 356 355 355 354 353 353 351 348 348 348
320 322 317 315 320 319 317 327 337 340 342 344 342 328 325 330 333 344 354 352 353 355 356 355 354 354 355 355 354 354 354 356 360 360 360 362 362 362 360 359 359 357 357 357 357 360 360 360 361 362 362 360 359 358 356 355 353 352 352 350 349 349 348 348 349 349 349 349 349 349 350 351 352 352 352 352 352 352 352 351 349 349 352 353 353 355 355 353 352 353 353 353 353 352 348 346 347
317 322 322 321 321 323 322 324 322 319 325 343 338 315 313 324 330 339 349 350 352 355 356 355 355 356 355 356 355 355 357 358 359 359 359 363 363 362 360 359 359 358 356 356 356 357 359 359 361 363 362 361 360 359 358 355 353 353 352 351 350 349 348 348 349 349 348 348 349 349 350 351 352 352 353 353 352 352 352 352 351 350 352 353 353 354 354 352 352 352 352 352 353 353 352 349 346
313 319 324 324 323 323 321 322 318 311 316 337 338 316 311 318 325 336 345 346 350 354 355 355 355 357 356 355 354 357 361 360 359 359 359 362 363 363 362 360 360 358 356 357 356 357 359 359 361 363 362 361 360 360 359 356 354 353 352 351 350 349 349 348 348 349 348 349 350 350 350 351 352 353 353 353 353 353 353 353 352 351 351 353 354 354 353 352 352 351 350 352 353 353 354 352 347
313 321 324 323 324 323 321 320 317 315 320 331 338 326 314 312 321 336 344 342 344 350 354 355 357 358 355 353 354 357 360 361 362 360 359 361 363 363 363 362 360 359 357 357 357 357 360 360 362 363 362 362 361 360 359 357 355 354 352 352 351 351 350 350 349 350 350 350 350 351 351 351 353 353 353 353 354 354 353 352 353 352 351 353 354 354 353 351 350 352 353 354 355 356 355 354 350
320 324 324 323 325 324 323 320 316 320 319 314 324 329 316 311 321 338 345 337 335 341 346 352 358 359 356 353 353 355 358 361 361 360 359 360 362 363 363 362 361 360 358 358 358 359 360 361 362 363 362 362 361 360 359 358 356 355 353 353 353 352 352 352 351 350 351 352 351 351 351 351 353 353 353 354 354 354 353 352 352 352 352 354 354 352 352 352 352 355 355 355 355 356 355 353 352
323 325 326 327 327 325 325 322 317 319 316 309 315 321 315 312 317 328 335 329 331 337 339 346 355 356 356 354 353 354 356 359 359 358 358 359 361 362 362 363 362 361 360 359 359 360 360 362 363 362 363 362 360 359 359 359 358 356 354 353 353 354 353 353 352 351 351 353 352 351 351 351 352 352 353 354 354 354 353 352 351 350 352 353 353 352 352 353 355 356 355 355 354 355 355 353 351
324 325 327 326 327 328 326 325 320 315 312 310 314 318 316 314 315 321 329 331 334 337 337 343 351 352 354 355 352 352 353 356 358 357 358 360 361 361 361 363 363 362 361 360 360 360 360 362 363 363 362 362 359 358 358 359 358 356 354 354 354 355 354 354 354 353 352 352 351 351 352 351 351 350 351 353 354 354 353 352 350 348 349 351 352 353 352 353 355 354 354 355 355 356 356 353 351
323 325 324 318 320 322 319 319 319 312 309 312 317 321 319 313 316 324 331 336 337 338 339 342 348 351 353 353 352 351 351 353 357 358 359 359 360 362 362 362 364 363 361 360 360 359 360 361 363 363 362 361 359 357 358 359 358 357 355 355 355 356 355 354 355 354 353 352 351 350 351 351 351 351 350 351 352 352 352 353 351 347 347 349 351 352 352 353 353 351 353 355 356 357 356 355 352
323 322 318 312 311 314 312 311 313 310 310 315 322 324 320 315 320 328 331 334 338 342 342 342 345 351 354 354 353 353 352 352 355 357 358 358 359 362 363 362 364 364 362 360 360 359 359 360 362 363 362 361 359 357 357 358 358 358 356 355 355 356 356 355 356 355 353 352 350 349 351 351 351 352 351 351 350 350 351 353 353 350 348 348 350 351 352 354 353 352 354 354 355 356 356 355 353
322 318 313 310 310 311 311 311 310 310 311 318 327 325 317 315 322 331 332 334 339 342 343 344 347 352 356 355 353 352 352 351 352 354 355 356 359 361 361 362 363 364 362 361 360 359 359 360 361 362 362 361 359 357 357 357 357 357 358 357 356 357 356 356 356 355 353 352 350 349 350 351 351 352 352 352 351 349 350 352 353 352 351 351 351 352 354 355 356 355 355 354 354 356 356 355 354
323 323 319 312 310 311 311 311 310 310 312 318 325 322 314 313 323 333 334 336 339 339 342 347 349 353 357 356 353 352 351 352 352 354 355 356 359 360 361 362 363 364 363 361 361 360 359 360 361 361 361 361 360 358 357 357 357 358 359 359 358 358 357 356 357 355 354 353 352 351 350 350 349 349 351 352 353 351 349 351 353 353 353 353 353 354 354 355 357 356 356 356 355 355 356 355 353
322 326 320 312 314 314 311 311 311 310 310 315 317 317 317 320 328 333 335 336 339 342 344 348 350 353 355 355 355 352 352 353 353 355 356 356 359 360 361 363 364 364 363 362 362 361 360 361 361 360 360 361 361 359 358 357 357 357 358 358 358 359 358 357 357 356 355 355 353 352 352 351 349 348 348 351 353 353 351 351 353 353 354 355 354 353 352 354 356 356 355 357 356 355 356 355 353
321 320 315 317 323 320 310 309 313 311 310 313 313 314 318 323 327 331 337 337 340 344 345 346 350 354 353 355 356 353 351 353 353 354 355 355 357 359 360 362 363 363 363 363 362 361 360 360 360 360 360 360 361 361 360 358 357 356 356 355 356 358 358 357 356 356 356 355 354 353 354 353 350 348 347 349 352 354 353 352 352 353 353 355 354 352 352 352 356 356 355 357 357 354 355 356 354
320 315 316 323 325 321 315 311 312 312 311 313 312 311 313 316 320 329 337 337 337 340 343 347 352 353 352 354 356 355 353 352 353 353 353 354 356 358 359 360 361 361 361 362 363 363 361 360 360 360 359 359 360 360 359 358 356 355 354 354 354 355 356 356 356 356 356 355 354 354 354 354 352 350 348 348 351 353 354 353 353 352 352 354 354 353 352 351 354 356 355 358 357 353 355 357 355
321 319 322 322 314 313 314 312 311 312 312 312 312 312 313 313 317 325 332 333 334 338 343 347 349 350 351 352 355 356 355 354 354 353 352 353 355 357 358 357 359 360 360 361 363 362 362 360 359 359 359 359 358 357 357 356 355 355 354 354 353 353 354 354 355 356 355 355 355 354 354 353 353 352 350 350 351 352 352 353 353 352 352 353 353 352 352 352 353 355 355 356 356 353 354 357 356
323 322 324 323 317 314 314 313 312 311 311 312 312 312 314 318 323 326 329 332 335 338 342 343 342 347 350 350 352 354 355 356 355 352 351 351 353 355 356 356 358 361 361 361 362 362 362 361 360 359 358 357 357 356 355 355 355 354 355 354 353 353 354 354 354 356 355 354 354 354 354 353 353 353 352 352 351 350 349 351 352 351 351 352 353 351 350 352 353 354 354 354 355 354 354 356 356
319 317 317 318 318 317 317 315 313 311 311 312 313 312 313 322 331 332 332 337 338 339 342 342 342 346 347 349 352 354 356 356 354 351 350 350 352 354 355 357 359 362 362 362 362 361 361 360 359 358 356 354 354 354 353 353 353 353 354 354 353 353 354 355 354 354 354 354 354 354 353 353 353 353 353 353 353 350 347 348 350 350 350 351 352 350 349 351 353 354 353 353 354 356 355 354 355
322 318 317 317 317 315 313 313 313 312 310 311 314 312 314 324 335 335 336 342 342 343 343 342 344 346 346 350 354 354 355 354 353 351 348 350 355 355 356 359 361 363 363 363 362 361 361 361 358 356 355 354 352 352 351 352 352 352 352 353 352 352 352 353 354 353 354 353 353 353 353 353 353 353 353 353 354 352 348 347 348 348 349 350 351 352 349 348 350 352 353 352 353 357 358 355 354
Wind_Speed
1 2 3 4 4 4 4 4 1 3 2 5 5 4 6 4 3 5 6 5 4 5 3 3 6 6 2 2 4 5 8 8 6 4 3 4 9 15 12 14 18 18 19 17 17 18 18 18 17 16 16 15 14 14 15 15 15 15 16 17 19 19 19 21 20 18 18 19 20 20 20 21 24 25 24 21 19 18 18 17 16 15 14 14 14 14 15 14 14 14 12 11 10 10 9 9 10
2 3 4 5 4 4 1 2 2 3 3 6 5 4 6 4 3 5 6 3 4 6 4 5 7 5 2 2 3 3 7 8 9 8 6 12 15 14 14 16 17 17 18 17 17 17 17 18 18 16 16 16 15 14 14 15 15 14 15 17 19 19 19 20 19 18 18 19 20 21 20 20 22 24 24 22 19 17 16 16 15 14 13 13 14 14 15 14 15 14 12 11 10 10 9 9 9
3 4 4 5 5 5 1 2 2 2 4 6 6 5 4 4 6 6 6 4 5 6 5 5 6 6 2 3 3 2 4 6 9 9 8 15 14 13 16 16 15 15 18 17 16 16 16 18 18 16 16 16 16 15 14 15 15 14 15 17 18 19 19 20 20 19 18 18 20 21 21 21 21 23 24 23 20 16 15 15 14 13 12 13 13 14 14 14 14 13 11 11 10 10 10 9 10
3 4 4 5 4 4 3 2 1 1 4 5 5 6 3 5 7 7 6 4 5 6 6 6 5 5 3 3 4 2 5 5 7 7 8 12 14 17 18 16 14 12 15 18 16 15 15 17 18 16 16 15 15 15 15 15 16 15 15 16 18 18 19 19 20 20 19 18 19 20 20 21 21 22 23 23 21 18 16 15 14 13 13 13 14 14 13 13 14 13 11 10 9 10 10 9 9
3 4 4 5 3 1 2 1 1 3 5 4 5 6 4 6 6 6 5 5 6 6 6 7 4 6 4 4 3 2 4 4 8 8 10 14 17 20 18 17 14 10 11 15 16 14 14 17 18 17 16 15 15 15 15 16 16 16 15 16 18 18 19 19 21 21 20 19 18 19 19 19 20 22 22 22 21 19 18 17 16 15 14 14 15 14 13 13 12 12 12 9 8 8 7 7 8
5 4 4 5 2 1 2 2 3 6 5 5 5 6 5 5 4 5 6 6 6 5 5 4 4 7 4 5 5 6 4 2 7 8 12 18 20 20 19 18 14 11 9 11 15 14 14 15 16 17 18 16 15 15 15 16 16 16 16 17 19 20 19 19 21 21 21 20 19 20 19 19 20 20 21 21 21 20 19 18 17 16 15 15 15 14 13 13 13 13 12 9 8 7 6 7 6
5 4 3 4 1 2 1 4 4 6 5 5 5 5 5 5 2 3 6 7 6 5 4 3 5 7 5 5 5 9 6 3 5 9 15 19 20 20 19 17 15 13 10 9 12 14 14 13 14 16 17 16 15 16 14 14 15 15 15 15 16 19 20 19 20 20 21 20 19 20 18 19 20 19 19 21 21 20 19 17 16 17 16 16 16 15 13 12 15 15 12 8 7 7 7 7 6
5 3 2 2 1 1 2 6 4 5 5 4 4 5 4 4 1 1 4 4 4 5 5 4 4 4 6 4 4 9 8 7 9 14 18 20 20 20 18 17 16 15 12 9 9 13 14 13 13 15 16 15 14 15 14 13 14 14 14 14 14 16 18 18 19 19 20 20 19 18 18 19 19 19 18 19 20 19 19 17 17 17 17 17 16 15 14 13 16 13 9 7 7 7 7 7 7
5 4 2 2 1 3 3 5 5 5 5 4 4 4 3 2 1 1 3 5 5 5 5 4 1 2 7 7 8 9 8 10 13 17 19 19 19 18 16 16 16 16 14 11 9 11 14 13 12 13 14 14 13 14 14 13 13 14 13 13 14 14 16 17 17 17 18 17 18 17 17 19 18 19 18 18 19 18 17 17 17 17 17 16 15 15 15 16 15 11 8 8 7 7 8 7 7
4 2 2 2 1 3 4 4 4 4 4 3 3 3 2 1 1 1 2 6 6 5 5 1 1 5 8 8 8 7 9 12 15 17 18 18 17 16 16 15 16 16 15 13 11 11 12 13 13 12 12 12 13 12 13 13 12 13 13 13 13 14 15 16 16 16 17 17 18 18 19 20 19 20 19 19 18 17 17 16 15 15 16 16 15 15 16 16 14 11 10 9 9 9 10 9 8
2 0 3 2 3 5 5 4 4 4 4 2 3 3 1 1 2 2 2 5 5 4 5 1 2 7 8 8 7 8 11 13 15 17 17 16 15 15 15 15 15 15 15 15 14 12 11 12 12 12 10 10 11 11 11 12 12 12 13 13 13 14 14 15 16 17 18 19 20 20 20 20 21 21 21 20 19 18 17 16 15 14 15 15 15 15 15 16 14 13 11 10 11 11 11 10 9
4 3 3 2 5 5 4 4 5 3 3 2 4 5 2 2 2 2 1 4 4 4 5 1 2 4 6 8 6 9 13 13 15 16 17 15 15 15 15 15 15 14 14 15 15 13 11 11 11 11 11 10 9 11 11 10 11 11 11 12 13 13 13 14 15 16 17 18 19 20 19 19 20 21 21 21 21 19 17 18 17 15 14 14 15 15 15 15 14 15 14 13 13 12 12 11 10
4 5 4 4 4 4 3 3 4 1 4 3 4 5 2 2 2 1 1 3 4 5 5 3 3 2 5 8 6 9 11 13 15 15 16 15 15 14 14 15 14 14 14 14 15 14 13 11 10 11 12 11 10 11 11 9 9 10 9 10 12 12 12 12 12 14 14 14 16 17 17 17 18 19 19 20 20 19 19 19 18 17 15 14 14 14 14 14 14 14 14 14 14 13 13 12 10
4 4 5 3 2 4 4 3 4 2 5 5 4 5 3 2 2 2 1 3 5 5 5 4 3 2 5 7 6 8 10 14 15 15 15 14 15 14 14 15 14 14 13 13 14 15 14 12 10 12 13 12 11 9 10 11 11 10 8 9 11 11 11 11 11 12 12 12 13 14 16 17 17 18 18 19 19 19 20 19 17 16 15 14 13 12 11 12 13 13 13 14 14 13 12 11 10
4 3 4 2 4 4 5 5 4 3 6 5 4 5 3 4 2 2 2 2 5 4 4 4 1 1 4 4 4 9 13 16 15 15 15 14 15 14 14 14 14 14 13 13 13 14 15 14 11 11 14 13 12 9 8 11 13 12 10 10 10 10 10 10 11 11 11 12 13 13 14 15 16 17 16 17 17 17 17 16 15 13 14 14 13 13 12 11 12 13 13 14 13 11 11 10 8
3 4 4 3 5 5 6 5 4 3 6 5 4 4 3 5 2 2 2 2 4 4 2 3 2 3 3 3 7 14 17 17 15 16 16 15 15 14 14 13 13 13 12 12 12 12 13 15 14 13 13 12 13 12 10 11 12 12 12 11 10 10 10 10 10 11 11 12 13 12 13 13 14 14 14 15 15 14 13 13 14 13 14 15 15 14 14 12 11 12 13 13 12 10 9 9 7
3 4 2 4 6 6 7 7 6 4 5 5 5 3 2 5 3 2 3 0 2 4 3 3 3 3 4 7 13 19 19 17 16 17 16 15 15 14 13 13 13 12 12 12 11 12 12 13 15 14 13 12 12 13 12 12 12 12 11 10 11 11 10 10 10 10 10 11 12 11 12 13 12 13 13 14 13 13 14 13 13 15 14 14 15 14 14 12 10 10 11 11 11 10 9 8 7
4 3 3 5 6 7 6 8 7 5 5 5 4 2 1 3 4 3 3 3 2 3 4 3 3 4 6 10 15 19 18 17 17 17 16 15 14 14 13 13 13 12 12 12 11 12 12 12 12 13 15 13 11 12 12 11 12 11 8 7 10 11 10 10 9 9 9 10 11 10 12 13 12 11 12 12 11 12 14 13 13 15 14 14 15 14 14 13 12 11 10 10 10 10 10 8 7
3 3 3 6 6 5 5 7 6 4 6 4 2 2 0 2 3 2 3 3 3 3 4 4 4 6 9 12 15 18 18 17 16 16 16 14 13 14 13 13 13 13 13 12 12 12 12 12 11 12 13 14 14 13 11 11 12 10 8 8 9 8 8 9 8 8 9 9 11 11 11 12 11 10 11 11 11 11 11 12 13 15 14 14 14 14 14 13 13 12 11 11 11 10 10 8 7
2 3 3 7 5 3 3 5 4 3 4 2 2 2 2 1 1 2 2 2 4 3 3 4 5 7 10 12 15 17 17 16 16 15 14 14 13 13 13 13 13 13 13 12 12 12 12 12 13 12 12 14 16 15 13 13 12 10 10 10 10 8 8 8 8 10 10 8 10 11 9 10 10 10 10 10 10 9 9 11 12 13 14 14 14 14 14 13 12 11 12 12 11 10 9 8 7
2 3 5 6 4 3 5 5 3 1 1 1 2 2 2 2 1 3 2 2 3 3 2 3 4 7 10 12 14 15 16 16 15 14 13 13 12 12 12 12 13 12 12 12 12 13 13 13 13 13 13 13 14 15 15 15 13 11 10 10 10 10 10 10 9 10 10 8 9 10 9 8 9 9 8 8 10 9 10 12 13 13 14 14 14 13 12 12 11 10 11 11 9 9 9 9 6
2 3 6 6 5 4 5 5 3 2 1 1 2 2 1 2 3 4 4 3 1 3 3 2 4 7 10 12 13 14 14 14 15 14 13 12 11 11 11 12 12 12 12 11 12 13 13 13 13 13 13 12 11 11 12 13 13 12 11 10 10 10 11 12 11 10 10 11 10 10 10 7 8 8 7 7 10 9 9 11 13 14 14 13 12 11 11 12 11 10 10 9 8 8 8 8 6
2 4 6 6 5 4 4 5 2 1 1 1 1 1 0 2 3 2 4 5 2 2 2 1 4 8 9 11 12 13 13 13 13 14 13 12 11 11 11 12 11 12 11 11 11 12 13 13 13 12 12 12 11 10 10 11 11 10 10 11 11 10 11 14 14 14 14 15 14 13 11 9 9 9 7 8 10 9 8 9 10 11 12 11 11 10 11 11 10 10 10 9 8 7 6 6 6
3 5 7 7 5 5 5 5 3 1 2 2 1 1 2 3 2 0 4 6 3 2 1 1 5 10 10 10 11 11 12 13 13 13 12 12 11 11 11 11 11 11 11 11 11 11 12 13 13 12 11 11 11 10 10 10 9 9 9 11 12 11 12 14 15 17 18 18 17 15 14 13 11 10 10 11 11 9 8 9 9 10 10 10 9 9 10 11 11 11 10 10 9 7 6 7 8
4 8 8 6 4 5 5 4 4 2 3 2 2 3 1 2 4 4 7 5 2 3 2 3 7 11 11 11 11 11 11 12 13 13 11 10 10 11 10 10 10 10 10 11 11 11 12 13 13 13 12 11 10 10 9 9 9 9 9 9 11 12 11 12 15 18 20 20 18 17 16 15 14 13 12 12 12 10 8 10 11 11 12 11 10 10 10 11 11 11 11 10 9 7 7 8 8
7 9 7 4 3 5 3 3 3 2 2 2 3 3 1 1 4 5 6 3 3 4 4 7 9 11 11 10 10 10 10 11 12 12 11 9 9 10 10 10 10 9 10 11 10 10 11 12 13 13 12 12 10 10 9 8 9 9 9 8 8 11 10 10 13 15 20 22 19 18 16 14 14 14 13 12 13 11 9 10 10 10 11 12 12 10 10 11 11 12 11 9 9 8 8 8 8
7 8 5 3 2 3 2 2 3 2 1 1 4 4 2 2 3 3 3 3 5 6 6 9 9 10 11 10 10 9 9 10 11 11 11 10 9 10 10 9 9 9 9 10 10 9 11 12 12 12 12 12 11 10 9 8 9 8 9 8 7 9 10 10 10 11 19 23 21 19 17 15 13 12 12 12 12 11 10 11 11 10 10 11 11 10 10 11 10 9 9 8 8 8 7 8 8
7 7 3 2 2 2 2 1 2 2 1 1 5 7 4 3 4 2 3 3 6 5 6 9 8 8 10 9 9 8 8 10 10 10 10 10 9 10 10 9 9 8 8 8 9 9 10 11 11 12 12 11 11 10 9 8 8 8 9 8 7 8 9 11 10 11 15 19 21 20 17 16 13 12 13 12 13 13 12 12 12 11 11 10 9 10 12 11 9 8 9 8 8 8 6 7 7
7 6 5 2 4 3 2 1 1 3 1 1 5 6 5 6 4 1 2 3 5 5 6 8 8 7 8 9 8 7 8 9 10 9 10 10 9 9 9 9 8 8 7 7 8 8 9 9 10 11 11 11 11 10 9 8 8 8 8 8 8 9 9 10 11 11 12 14 17 16 16 16 12 12 13 12 13 14 13 13 14 12 12 11 9 11 12 11 10 9 9 8 8 7 7 8 8
6 5 5 3 5 4 3 1 2 3 0 1 5 4 2 5 4 3 3 3 5 5 5 6 7 6 6 7 7 7 8 9 10 10 11 10 9 9 9 9 9 8 6 6 7 8 8 8 9 10 11 11 10 9 9 8 8 8 8 8 9 10 9 9 10 10 12 13 13 12 14 16 12 11 12 11 12 13 13 14 15 15 14 12 10 11 12 11 10 9 10 9 8 8 7 8 9
5 5 4 4 3 4 5 1 2 3 2 2 5 5 2 6 6 5 4 4 6 5 5 6 6 6 6 7 8 8 8 9 11 12 12 11 11 9 9 9 8 5 3 2 4 7 8 8 7 8 10 11 10 10 9 8 7 7 8 8 9 10 9 10 10 10 12 13 13 11 13 14 11 11 11 12 13 13 13 14 15 15 14 13 12 12 12 11 10 10 10 10 9 9 8 9 9
4 5 4 2 2 3 6 2 2 2 1 4 6 5 2 5 5 6 6 6 7 6 5 5 6 7 7 7 8 7 8 10 11 12 12 12 12 10 10 9 7 6 7 6 6 8 8 8 8 7 9 10 10 10 9 8 7 7 7 7 9 10 9 10 10 11 12 13 13 13 12 12 11 11 11 13 14 13 13 14 13 14 14 13 13 12 12 11 11 11 11 10 10 9 9 9 9
4 4 4 1 3 2 3 4 2 2 1 5 7 5 5 1 6 5 8 8 8 6 4 5 6 7 7 7 8 7 8 9 10 11 12 12 11 11 11 8 8 12 13 10 9 10 9 10 10 8 8 10 10 10 9 8 7 7 7 7 8 9 9 10 10 11 12 13 13 14 14 13 12 12 13 13 13 14 13 13 14 14 14 14 14 13 12 13 12 12 11 9 8 8 9 9 9
3 2 4 1 3 5 1 3 4 3 4 5 7 8 9 5 4 6 8 9 8 6 5 5 6 7 7 7 7 8 8 9 10 11 13 13 12 12 11 9 11 15 13 12 12 12 11 11 11 10 10 10 10 10 10 9 8 7 7 6 7 8 9 10 10 11 12 13 14 14 15 14 13 13 13 12 12 13 13 13 15 15 15 15 15 14 13 13 12 11 11 8 7 7 8 8 8
3 3 4 3 3 5 3 2 2 2 6 7 8 8 11 10 4 7 9 10 9 7 6 5 6 7 7 7 7 8 9 9 9 11 13 14 13 13 12 11 12 13 13 15 15 13 12 12 12 12 12 11 11 10 10 10 8 8 7 7 8 8 9 9 11 12 12 13 14 15 16 14 14 14 14 13 11 12 13 14 16 16 16 15 15 15 14 13 11 9 10 8 7 7 7 6 6
7 7 7 7 6 5 3 4 2 2 6 8 9 9 10 10 6 7 10 10 9 8 7 6 6 7 7 7 8 8 9 9 9 11 12 13 13 13 12 12 14 13 13 15 16 15 14 14 13 13 13 13 12 11 11 10 9 9 8 8 8 8 9 10 11 12 12 13 15 16 16 14 15 15 15 14 12 12 14 15 16 16 16 15 15 15 13 12 11 9 9 8 8 8 7 7 6
8 8 8 8 8 5 2 2 2 2 6 7 6 9 10 11 9 5 8 10 9 10 10 9 8 8 8 9 9 10 10 8 8 10 11 12 13 13 13 12 14 15 15 16 17 17 16 15 14 14 14 14 14 13 12 11 10 9 8 8 8 8 9 10 11 12 12 13 15 16 16 15 15 16 15 14 13 13 14 14 16 16 15 15 15 14 12 11 10 9 8 7 8 8 8 9 8
8 8 8 7 7 6 2 3 2 1 4 6 6 9 11 11 10 5 8 10 10 10 11 11 11 10 9 10 11 11 10 8 8 9 11 12 12 13 13 13 14 16 16 17 17 17 17 16 15 15 15 15 15 15 13 11 11 9 8 8 8 9 9 10 11 12 12 13 15 16 15 15 15 16 15 14 14 14 14 14 15 15 15 15 13 12 10 9 9 9 8 8 8 7 8 8 8
9 8 7 6 6 5 1 4 2 2 3 6 7 10 11 10 9 6 9 10 9 9 11 11 11 11 11 11 12 12 11 10 10 10 11 12 13 13 14 13 15 16 16 17 16 16 17 16 15 15 16 16 15 15 14 12 11 10 9 8 8 8 9 10 10 11 12 13 15 15 15 15 16 16 16 15 15 14 14 15 16 16 15 14 13 11 10 10 9 9 9 8 8 8 8 7 8
9 8 7 6 5 5 1 4 3 4 4 8 9 10 9 7 7 7 8 9 8 8 11 11 11 12 12 12 11 12 13 12 12 11 11 12 13 14 14 14 14 15 16 16 16 16 16 16 17 17 16 16 15 16 15 12 12 11 9 7 7 7 8 9 9 10 12 13 14 14 14 15 16 16 16 16 15 15 15 15 16 16 15 13 12 11 11 11 10 10 10 8 8 9 9 9 9
9 10 9 8 6 7 5 2 2 5 6 5 7 8 4 2 4 4 5 6 8 8 10 11 12 12 12 12 12 12 12 12 12 12 11 11 13 14 15 14 14 16 17 16 16 16 16 16 18 18 17 16 16 17 16 14 13 13 11 9 8 8 8 9 10 11 13 14 15 15 14 15 16 16 16 16 15 16 16 15 15 16 14 13 12 11 11 11 11 11 10 9 8 7 8 10 9
8 9 9 9 10 10 8 6 6 6 4 2 4 7 1 1 3 2 4 5 7 8 10 11 12 11 11 12 12 12 11 11 11 11 11 11 13 14 15 15 16 16 17 17 16 16 16 16 18 18 17 16 16 17 18 16 14 15 14 12 11 11 11 12 12 13 14 15 15 15 15 16 16 16 16 16 15 15 16 15 15 15 14 13 12 11 11 11 11 11 9 9 9 7 5 7 9
5 3 1 5 9 9 8 6 6 6 2 2 2 6 4 2 2 2 1 4 5 7 9 10 10 10 11 11 11 11 10 11 10 10 10 11 12 14 15 17 17 17 17 16 16 16 16 16 17 18 17 17 17 17 18 17 15 16 15 13 12 12 12 13 14 14 14 15 14 15 16 16 16 16 15 16 15 15 16 15 15 14 13 13 12 11 11 11 11 11 10 9 8 7 5 5 7
3 6 4 5 7 8 7 7 6 5 3 2 4 4 5 4 2 2 4 5 4 3 3 8 9 10 11 11 11 11 10 10 10 10 11 11 12 14 15 17 17 17 16 16 16 16 16 16 16 17 17 16 16 17 19 18 16 16 15 13 12 12 12 12 14 14 13 14 14 15 16 16 16 16 15 16 15 15 16 16 15 15 13 13 12 11 11 12 11 10 10 8 6 6 6 5 4
2 7 4 5 5 7 6 7 5 3 4 4 3 2 5 5 2 3 4 4 5 2 3 5 7 9 10 10 11 11 10 10 9 10 10 11 12 14 15 15 15 15 15 15 16 15 15 15 15 16 17 16 16 17 19 18 16 16 15 13 12 12 11 11 13 14 13 14 15 15 15 16 16 16 15 15 15 15 16 16 16 15 14 13 13 12 11 11 10 9 9 8 7 6 6 5 4
3 4 4 3 3 4 4 6 4 2 5 5 1 2 5 4 4 2 2 2 4 3 4 2 2 5 8 9 10 10 9 9 9 10 10 11 12 13 12 12 13 14 14 15 14 14 14 14 15 17 17 16 16 17 18 18 17 16 15 15 14 13 12 11 12 14 14 14 15 16 15 15 16 16 16 15 16 15 16 16 17 17 16 13 12 12 12 12 10 9 9 9 8 7 6 5 5
2 4 7 5 4 3 3 3 3 4 6 4 3 4 5 4 3 2 1 3 4 1 2 1 2 3 4 6 8 9 9 8 8 9 9 10 11 10 10 11 12 12 13 13 14 14 14 14 15 17 17 16 16 17 18 18 17 17 16 16 15 14 13 13 13 14 15 15 15 16 16 15 15 16 16 16 16 16 16 17 18 18 17 15 13 12 12 12 11 10 10 9 9 7 6 5 5
4 6 6 5 4 4 4 4 3 6 6 2 2 3 5 5 3 3 4 3 3 2 2 2 1 3 2 3 5 6 8 8 7 8 8 8 9 9 10 11 12 12 13 13 14 14 14 14 15 17 17 16 16 17 18 18 17 17 17 17 16 15 14 14 14 14 15 15 16 16 16 16 15 16 17 17 17 18 18 17 18 18 18 17 15 13 13 13 13 12 11 10 9 8 7 6 5
6 6 5 6 5 4 5 5 5 7 3 1 0 1 4 5 2 6 9 5 1 1 3 4 0 3 3 2 4 4 5 7 7 8 8 8 8 9 11 12 12 13 13 14 14 14 14 14 15 16 17 17 16 17 17 19 19 18 18 18 17 16 15 15 14 15 15 16 16 17 17 17 17 17 17 18 18 19 19 18 18 18 18 17 16 15 13 12 12 13 12 10 10 9 8 7 7
8 7 6 7 6 5 6 5 5 5 1 2 1 2 5 4 1 5 8 4 3 1 1 1 0 2 3 3 4 6 6 7 7 7 8 8 8 8 10 11 11 11 12 12 12 13 13 13 15 16 16 17 17 17 18 20 20 19 18 18 17 16 16 16 15 15 16 16 16 18 18 18 18 18 19 18 19 20 20 19 19 18 18 17 17 15 14 12 11 11 11 11 10 9 9 8 8
7 7 7 7 6 6 6 5 4 4 1 2 3 3 4 2 1 4 6 2 1 2 1 1 2 3 3 3 4 6 7 7 6 7 7 7 8 8 9 9 10 9 10 10 11 11 12 12 14 16 15 16 17 18 18 19 19 19 18 18 17 16 17 17 16 15 16 16 16 18 18 19 19 19 20 19 18 20 20 20 19 19 18 17 17 16 15 13 12 12 11 11 11 10 10 9 9
5 5 7 8 6 5 5 5 5 5 3 2 3 3 3 5 6 6 6 4 2 2 3 4 4 6 5 4 5 6 6 6 6 6 7 7 7 8 9 9 9 9 9 11 11 12 12 12 13 15 15 16 17 18 18 18 19 19 19 19 18 16 16 16 16 16 17 17 17 17 18 19 19 19 20 20 20 20 21 20 20 20 19 18 18 18 17 15 14 13 12 11 11 10 10 11 11
3 5 8 5 4 6 5 4 4 5 6 3 1 4 2 2 5 4 5 3 1 2 4 6 5 7 6 5 5 5 6 6 6 6 6 6 7 8 9 9 9 9 10 11 11 12 12 12 13 14 15 15 16 17 18 18 18 19 19 19 19 18 17 17 18 18 18 18 18 17 17 18 19 20 20 21 21 21 21 21 21 20 20 19 18 19 19 17 14 14 14 13 13 12 10 11 12
5 4 4 2 2 5 4 4 4 4 6 2 2 6 4 1 0 1 5 4 3 2 3 6 6 7 6 5 6 6 6 6 6 6 6 6 7 8 9 9 9 10 10 11 11 11 11 12 12 13 14 15 15 15 15 16 16 18 18 19 20 20 20 20 20 19 19 19 19 18 18 18 19 20 20 21 22 22 22 22 21 21 21 20 19 19 19 18 16 15 15 14 15 15 12 11 12
9 4 2 3 4 4 4 5 6 4 5 3 2 4 3 2 3 3 5 4 4 1 4 5 6 6 6 5 6 7 6 6 6 6 6 6 7 8 9 10 10 10 9 10 10 10 10 11 10 11 12 12 13 13 13 13 15 17 18 19 20 21 22 23 22 21 20 20 20 20 20 19 19 20 21 21 22 23 23 23 23 22 22 21 21 20 19 19 18 16 16 15 15 17 15 12 12
8 6 5 5 4 3 3 4 5 4 5 4 1 3 1 2 3 5 5 4 1 4 5 4 4 5 6 5 6 6 6 6 6 7 7 7 8 9 10 9 10 10 9 9 10 10 10 9 9 9 9 9 9 10 11 12 13 15 16 18 20 21 22 23 23 22 21 21 22 21 21 22 21 20 22 22 22 24 25 25 25 24 24 22 22 22 21 20 19 17 17 17 16 17 18 15 12
6 7 7 6 3 3 3 4 5 5 5 5 3 5 2 4 2 7 5 3 0 2 3 3 3 5 5 5 5 6 6 6 6 7 7 7 7 8 9 9 9 9 9 9 9 9 10 9 8 8 8 8 8 9 10 10 12 13 14 16 18 19 21 22 22 23 23 22 23 23 22 22 22 21 22 23 23 24 26 26 26 26 26 24 22 23 22 20 20 19 18 17 16 16 18 17 14
5 6 7 7 6 5 5 4 5 5 6 5 4 5 2 4 2 6 4 2 1 2 2 3 4 5 6 5 6 6 6 6 7 7 6 6 7 8 9 8 8 9 9 9 9 9 9 9 8 8 8 9 9 9 9 10 11 12 13 15 16 18 19 21 21 23 24 24 24 25 25 24 24 23 22 22 22 23 25 26 26 26 26 25 23 23 23 22 21 20 19 19 17 16 16 17 16
Wind_Direction
206 268 276 271 267 266 241 231 211 184 215 90 88 102 92 69 102 117 121 142 140 134 142 130 146 136 110 82 83 53 56 57 45 66 95 97 142 156 163 160 153 143 140 146 146 149 151 152 150 147 147 142 144 145 148 150 148 153 156 159 158 154 152 150 149 150 150 150 149 149 153 159 164 165 161 152 145 141 138 135 130 130 137 131 121 118 121 109 95 95 82 66 64 67 69 72 65
248 273 264 263 251 258 234 210 223 153 151 97 83 75 100 129 128 92 95 107 83 109 145 147 158 142 53 46 92 65 77 63 68 81 87 123 136 143 151 154 154 144 137 141 144 149 152 156 155 151 151 148 145 144 149 147 147 154 157 160 160 158 156 152 151 151 153 153 152 153 155 159 165 170 168 161 153 148 144 139 135 137 140 130 122 121 119 108 100 97 86 75 68 66 64 68 72
268 292 273 265 236 238 254 226 250 145 119 97 91 85 115 118 94 77 80 72 78 116 135 139 163 159 145 117 105 48 79 69 85 93 107 136 138 139 148 151 154 144 137 141 144 150 153 157 159 154 153 153 150 150 151 148 150 156 159 160 158 161 162 157 154 153 154 155 156 157 158 160 164 170 174 171 165 160 156 149 143 147 147 135 129 125 118 115 114 107 94 88 81 74 69 67 69
288 295 281 278 234 220 249 218 301 13 90 93 102 97 100 81 86 86 88 92 111 135 144 155 159 168 199 88 81 62 86 82 81 92 127 143 138 139 145 147 150 145 140 142 144 150 153 157 157 153 151 151 152 152 152 152 153 156 161 162 157 161 166 163 158 155 155 156 159 160 162 163 164 167 172 174 173 170 165 157 152 157 154 141 136 131 126 125 121 115 108 99 92 83 77 77 71
286 286 280 280 262 221 277 198 37 42 63 65 104 102 87 77 93 106 107 114 130 140 150 175 149 152 191 55 52 51 76 95 92 99 122 128 133 139 142 144 148 148 145 141 142 149 152 154 154 152 150 149 151 149 151 152 154 158 160 164 162 163 168 168 164 162 160 160 163 163 164 166 166 167 168 171 172 171 167 165 164 165 159 148 143 138 134 129 123 122 120 109 100 92 85 88 84
287 279 253 261 289 321 284 125 75 76 54 18 86 95 81 85 96 110 118 122 134 139 150 188 144 149 147 75 60 45 38 87 109 110 120 127 136 140 140 144 146 147 151 142 138 144 151 152 152 152 149 149 151 147 150 151 153 158 159 164 163 163 170 174 170 167 167 167 168 166 166 168 169 169 168 169 170 168 168 169 169 167 161 153 151 147 140 132 133 130 123 121 116 113 109 104 104
302 290 229 233 221 237 332 79 60 75 63 15 65 82 80 93 86 113 125 126 131 138 161 168 138 141 115 110 90 59 48 55 107 114 123 131 135 139 142 145 144 142 149 148 137 139 146 149 150 151 150 151 151 149 151 152 153 157 160 163 162 162 167 177 176 173 173 172 172 172 172 172 172 171 170 172 173 170 168 170 167 166 162 156 156 153 147 143 141 127 113 124 129 125 125 122 131
294 288 242 248 153 151 54 74 57 56 70 45 57 67 74 94 99 146 132 122 121 130 141 130 147 131 98 125 96 74 68 75 102 114 125 131 134 141 143 144 144 143 146 146 140 141 142 144 149 150 151 151 150 150 150 153 154 156 160 161 163 161 162 174 180 178 175 173 174 177 181 180 178 175 172 174 176 172 171 173 171 168 165 160 161 157 156 158 147 130 116 133 139 134 135 137 148
272 262 266 263 92 94 77 79 80 69 74 76 71 73 77 96 134 191 125 104 110 127 119 110 249 116 107 107 93 89 83 93 111 120 128 130 136 142 144 147 145 144 144 142 144 147 144 142 145 147 150 148 147 148 148 152 155 157 161 164 165 163 163 173 181 183 180 175 176 181 186 186 185 181 176 177 178 173 172 175 174 172 168 163 164 161 162 162 152 146 144 148 150 144 145 151 158
256 237 290 279 15 81 82 76 87 87 77 72 80 96 89 96 161 186 121 103 115 125 103 68 355 97 110 100 96 96 96 113 121 125 131 130 137 143 144 148 145 144 143 142 145 152 148 140 142 145 146 144 145 147 148 152 155 159 160 164 168 168 169 173 179 182 183 183 184 188 190 187 189 188 184 183 181 178 175 172 173 175 173 167 166 167 165 162 156 160 160 158 159 154 154 158 166
279 201 278 299 33 51 54 63 79 82 86 82 101 110 104 123 170 161 133 102 118 120 111 226 85 107 113 95 92 101 112 125 124 128 133 133 139 144 144 145 145 146 144 143 143 148 147 141 143 145 147 148 144 145 154 156 154 158 161 166 169 173 174 173 176 175 179 187 189 191 191 188 190 193 191 188 185 185 179 173 173 176 179 173 170 173 171 165 160 162 171 174 166 162 162 164 175
335 347 291 24 36 42 39 53 68 80 110 114 111 109 141 165 164 150 141 101 108 109 112 155 92 120 120 101 101 117 123 125 125 131 135 137 141 143 144 143 146 146 146 145 138 142 147 142 143 147 152 155 147 147 157 161 157 160 168 167 166 174 178 180 181 178 182 187 187 189 190 189 190 192 193 192 191 188 181 178 178 175 177 176 173 175 174 170 161 156 167 177 170 166 166 168 178
344 338 320 40 28 29 36 55 61 153 127 97 102 111 159 153 114 114 108 99 94 84 90 79 105 132 100 99 119 129 126 123 127 134 137 140 140 144 145 143 147 145 148 148 138 140 146 141 143 150 152 157 157 153 154 156 158 164 172 165 165 175 179 180 182 183 188 187 186 189 189 189 190 191 193 194 194 189 185 182 178 175 176 174 173 173 172 171 165 157 159 168 170 169 168 170 179
334 331 319 35 64 40 25 40 47 26 93 87 105 120 158 107 86 129 157 119 92 65 78 99 130 140 112 115 139 140 131 129 133 135 138 139 140 145 144 144 147 146 150 151 144 140 143 145 152 155 151 156 161 159 157 160 160 161 172 167 166 177 181 180 180 185 189 188 186 187 189 190 191 195 194 194 194 191 188 184 178 176 175 172 168 166 169 174 172 166 162 167 171 169 168 171 177
324 318 291 21 61 51 29 26 27 17 65 75 102 118 144 102 94 143 133 93 94 81 87 117 138 57 118 125 146 141 136 137 139 138 139 139 141 143 141 145 147 149 153 154 151 144 144 149 159 159 151 154 160 165 166 169 166 161 173 174 168 178 185 183 182 185 186 190 190 187 192 193 193 195 194 194 196 193 189 187 184 177 178 176 170 169 170 176 179 173 170 171 171 170 169 169 174
324 297 271 48 48 39 30 12 359 7 50 61 101 128 146 118 120 128 96 13 102 120 106 118 91 33 73 81 114 131 138 142 142 141 139 139 142 141 142 147 148 151 155 159 157 151 150 149 155 157 155 159 165 171 168 173 176 169 175 175 172 182 188 186 184 185 183 187 187 189 195 194 195 195 193 197 199 194 186 185 182 178 187 183 178 180 171 170 182 177 171 172 172 172 171 169 176
289 274 297 56 46 35 17 2 7 4 34 68 120 159 159 121 132 132 133 251 110 122 99 85 85 58 59 83 113 129 138 143 144 145 143 145 146 146 148 149 152 154 158 165 162 157 158 154 154 155 159 164 167 169 167 176 183 178 178 175 178 187 194 193 191 191 187 186 185 191 196 193 196 196 194 197 198 194 182 172 174 182 192 189 184 182 170 169 181 180 173 173 178 177 177 177 185
288 289 16 50 38 35 8 358 14 354 12 58 115 172 185 112 131 146 167 173 152 138 116 92 97 92 87 103 124 134 140 145 150 152 151 155 155 153 154 155 160 160 161 167 167 164 161 160 161 156 157 159 162 167 167 174 179 179 182 182 185 188 194 194 191 192 190 190 192 197 200 196 197 197 196 194 191 195 184 166 173 186 187 188 185 175 171 174 181 185 177 178 183 182 183 183 191
316 327 29 58 27 26 14 355 6 354 7 37 113 154 188 62 103 166 203 169 170 179 147 146 141 125 117 125 136 139 145 151 157 160 159 163 162 159 157 159 164 162 165 169 171 170 164 164 165 162 159 155 157 162 161 163 169 178 182 185 190 189 193 191 187 191 189 192 195 199 204 197 194 196 194 187 180 184 177 164 176 187 183 184 182 173 175 177 184 190 183 181 181 182 186 183 187
342 338 25 57 18 15 44 2 5 14 2 4 120 138 185 96 91 198 238 198 197 216 177 168 160 146 138 140 148 149 153 158 164 169 167 167 165 163 160 161 165 164 167 169 171 173 170 167 166 166 164 160 159 159 158 159 168 181 182 183 185 187 193 194 196 200 199 198 196 199 203 194 189 191 189 181 167 163 163 162 173 181 181 183 182 179 177 176 182 189 188 185 180 182 183 175 176
329 348 15 35 357 15 53 18 21 61 352 356 117 157 182 140 189 223 245 248 205 191 177 185 167 153 151 154 157 157 160 163 169 173 172 171 169 168 164 163 164 164 166 167 169 174 174 171 167 166 167 169 163 160 160 161 169 174 176 181 180 182 193 200 201 203 205 204 203 206 206 197 191 186 184 178 158 157 164 159 165 173 176 179 181 180 175 174 176 181 188 185 181 185 183 174 163
307 33 24 13 347 14 52 40 52 110 83 112 155 167 103 145 217 235 245 263 21 79 107 165 170 163 162 163 163 163 166 167 170 173 173 171 169 169 165 163 161 161 166 169 169 173 175 174 171 167 167 171 167 164 163 162 170 170 167 176 182 181 188 200 202 200 202 199 205 209 204 204 202 185 171 175 160 156 165 159 167 173 173 175 176 176 172 175 175 177 183 181 184 187 187 176 159
310 51 28 8 1 10 56 69 97 157 77 108 132 109 70 224 229 233 252 266 308 58 82 136 176 174 169 165 168 170 170 172 172 173 173 170 168 167 163 164 163 161 168 172 170 170 174 175 172 171 169 170 171 170 166 163 171 173 167 171 179 179 183 197 201 199 195 195 201 200 196 200 202 188 170 177 163 155 166 164 172 172 168 173 174 174 171 175 182 183 180 179 186 185 182 178 183
319 15 18 10 16 24 54 81 125 139 50 80 100 202 231 264 271 220 255 260 254 235 186 177 179 170 170 170 176 179 175 177 176 172 172 171 166 162 160 162 160 159 165 172 172 171 174 174 171 172 171 171 173 171 169 168 170 171 170 174 176 178 189 199 200 200 193 190 193 191 193 195 194 191 183 181 164 154 166 165 172 173 168 174 173 175 176 181 188 183 179 180 184 185 185 192 199
2 355 1 6 36 49 62 91 116 109 77 118 187 227 232 280 292 281 264 259 190 219 204 160 166 165 172 176 180 185 181 181 179 174 172 172 167 163 161 160 157 157 163 169 172 172 173 173 172 173 171 171 175 174 174 171 169 170 172 180 179 178 193 201 202 207 199 191 189 190 194 193 191 190 183 181 168 157 163 165 173 180 179 179 175 176 180 182 182 176 177 181 181 184 189 190 191
12 346 349 7 53 68 77 103 116 123 111 172 229 250 218 229 278 261 247 244 142 186 177 147 159 168 174 178 183 188 186 185 183 177 174 176 174 170 170 168 163 160 160 162 167 170 171 173 174 173 171 170 174 176 177 175 172 172 173 183 182 177 185 192 199 207 201 192 185 188 189 184 187 185 178 179 171 160 162 164 167 174 178 178 173 172 179 180 178 174 174 180 179 182 184 180 182
352 337 348 26 58 87 95 115 131 144 111 234 280 286 239 171 264 237 151 150 162 176 161 151 168 175 175 179 182 188 190 188 185 182 178 178 182 184 181 177 172 165 162 162 163 166 168 173 174 172 171 170 174 177 180 182 176 172 173 182 187 181 179 179 186 192 193 189 183 184 178 170 176 177 175 173 167 165 166 164 163 168 171 174 172 171 182 186 181 173 171 178 176 177 178 175 185
338 326 309 103 107 110 118 143 149 194 143 302 289 289 261 193 242 273 97 141 171 175 160 162 180 177 175 181 180 185 192 189 187 188 185 185 189 190 189 185 180 172 170 167 160 162 167 171 171 170 171 169 174 178 180 183 179 174 172 177 182 182 181 175 176 182 189 188 183 183 173 163 168 171 172 168 168 172 168 164 164 169 173 172 175 179 184 183 176 168 166 169 168 173 175 178 193
318 303 288 180 183 157 104 104 160 231 267 360 290 282 239 203 214 236 123 176 176 181 174 171 184 180 179 180 179 187 189 187 190 193 194 195 196 193 194 191 187 181 177 171 158 159 164 165 167 169 171 170 176 179 179 182 179 176 174 178 177 176 183 176 172 181 189 184 179 181 174 165 167 168 168 169 174 172 165 167 166 170 174 170 175 177 173 170 166 161 161 163 167 177 181 184 198
291 280 296 272 208 154 100 142 190 230 164 4 287 297 164 162 172 152 141 193 187 189 190 181 180 181 187 180 183 191 186 188 193 200 199 197 202 201 198 194 194 192 175 166 158 157 158 157 163 169 171 172 179 181 178 179 177 176 175 177 176 173 179 178 175 179 184 184 179 182 178 169 166 165 167 170 173 170 165 169 170 170 172 170 171 168 165 165 161 157 161 165 172 184 188 189 199
283 284 262 263 255 109 105 140 203 220 140 178 267 298 76 112 139 163 158 199 204 202 198 187 179 182 190 182 189 193 187 195 198 202 199 198 204 199 203 203 192 183 159 150 146 149 154 155 161 171 174 175 177 180 180 178 174 176 175 173 175 173 174 176 177 175 177 182 183 184 176 166 163 164 167 168 166 168 167 169 170 168 167 169 168 164 163 161 158 161 166 171 178 191 195 193 203
268 283 237 217 311 88 111 124 246 264 123 192 241 290 338 100 126 162 166 193 214 219 209 191 183 188 193 186 194 197 190 199 203 204 200 201 206 198 206 200 162 163 189 189 149 138 151 161 169 175 178 179 176 179 180 177 175 176 175 171 175 173 171 172 172 171 173 177 180 181 174 167 167 167 167 168 165 166 168 168 168 165 164 167 164 161 162 162 164 168 174 181 184 192 197 196 204
203 261 284 347 322 335 110 133 177 264 246 209 228 277 311 81 119 145 170 191 212 220 222 203 189 194 200 193 194 198 196 199 204 208 205 205 209 208 208 184 169 192 201 201 174 164 175 174 176 181 181 181 177 179 177 176 179 175 172 172 176 175 170 169 166 166 170 174 177 178 175 171 170 169 170 171 167 166 169 167 164 163 163 162 161 161 164 167 169 171 178 189 188 193 203 197 196
184 231 290 310 307 306 296 132 138 220 249 240 234 245 277 279 132 143 172 192 211 220 226 212 199 201 203 204 202 200 201 202 204 206 208 209 207 211 206 178 190 204 199 202 192 184 192 186 183 184 180 180 178 178 176 176 177 172 172 173 173 175 174 170 164 164 167 172 175 175 175 173 171 172 172 172 169 168 169 167 164 162 161 160 160 164 168 170 173 176 178 186 191 195 206 201 191
331 324 302 291 289 282 294 11 104 233 263 265 257 247 266 270 215 175 177 192 215 225 232 221 213 211 204 207 210 207 209 209 207 204 207 211 207 209 205 181 186 199 195 195 191 186 191 189 188 182 175 177 177 176 175 174 174 172 175 174 172 176 177 174 169 167 169 172 173 174 175 174 171 172 174 173 171 171 170 167 163 160 160 159 162 167 169 172 175 178 177 180 192 201 209 206 186
323 313 297 300 299 278 323 360 34 325 288 270 267 268 274 276 253 202 183 194 217 229 235 230 223 221 211 210 213 214 218 214 210 208 208 212 211 209 207 191 183 193 199 195 189 188 188 186 186 182 177 174 171 174 175 174 176 177 179 176 174 178 180 178 175 172 171 172 172 173 174 174 172 172 173 173 173 175 170 164 162 160 160 161 165 169 170 173 176 178 179 177 188 201 204 201 189
307 298 283 288 289 282 2 16 43 12 290 282 286 286 286 285 280 238 187 196 216 225 229 226 224 223 214 211 213 215 221 219 210 210 209 208 209 205 203 198 187 191 200 196 193 190 187 186 185 182 180 175 172 176 176 178 180 179 181 181 177 179 182 181 179 178 175 173 172 172 173 176 175 172 172 173 175 174 168 164 163 162 164 166 168 170 169 171 172 176 179 179 189 193 190 192 189
287 286 281 280 273 281 32 57 43 94 263 295 310 298 289 279 278 250 188 201 216 220 224 224 222 222 217 214 214 215 218 216 203 201 203 202 203 198 197 199 194 197 201 199 197 192 187 189 188 183 182 180 178 178 177 180 182 178 179 183 181 178 182 184 181 178 176 173 172 172 174 177 176 173 173 174 175 173 169 168 167 167 169 169 168 168 166 166 170 176 175 180 188 184 188 189 180
276 271 267 266 264 272 115 106 103 148 249 302 313 302 293 283 276 238 196 207 218 218 223 227 226 222 218 217 216 215 213 208 202 200 201 201 198 196 197 200 200 204 206 202 200 195 191 192 191 186 185 184 181 178 178 181 180 178 178 180 182 178 178 185 180 175 175 173 173 175 176 179 177 175 175 174 175 175 174 173 172 173 171 170 170 168 169 172 173 177 174 178 181 177 193 190 181
258 255 253 253 262 273 240 124 150 188 246 292 304 292 285 293 281 230 199 213 222 218 223 227 231 228 222 221 219 216 212 206 204 204 202 200 197 196 200 200 199 203 206 203 200 196 195 195 191 187 186 185 182 180 180 177 172 173 173 173 179 180 176 180 176 172 176 174 175 179 181 182 180 177 177 175 177 179 179 178 177 176 173 172 174 171 175 177 176 178 174 174 180 181 189 183 182
237 239 250 262 273 285 300 328 249 232 229 260 288 277 264 326 288 228 177 203 216 214 221 226 228 229 226 227 225 220 216 209 206 207 200 198 199 199 202 201 197 200 205 204 199 198 199 196 191 187 185 184 182 180 176 169 166 168 169 166 171 179 178 180 179 177 180 180 180 184 185 185 184 181 179 178 179 181 182 182 180 179 175 176 178 176 178 178 177 180 173 171 188 198 189 177 177
234 223 239 269 285 290 295 297 284 263 224 179 284 292 312 117 262 223 156 194 215 206 213 222 222 223 224 227 226 219 215 212 209 209 201 198 202 201 201 201 199 202 207 207 203 201 201 196 191 186 183 184 182 179 175 168 168 171 171 171 175 181 184 186 188 184 184 186 185 185 186 187 186 185 182 182 181 181 184 183 182 182 179 180 182 181 182 181 179 179 174 176 192 206 201 182 179
242 169 197 283 284 281 281 281 276 283 312 111 253 298 320 301 321 352 244 233 230 207 214 223 214 213 219 223 225 217 211 210 209 210 204 201 202 201 202 201 202 207 208 207 207 205 202 196 191 187 185 185 183 180 178 173 172 176 179 183 185 187 188 189 191 191 186 187 188 185 185 187 188 187 185 185 184 182 184 185 184 185 184 184 184 184 185 184 182 176 174 184 188 189 202 208 187
248 71 34 300 277 273 279 273 263 288 320 186 205 269 299 303 338 271 257 280 277 221 242 244 214 206 216 218 222 219 213 210 205 206 207 205 206 205 205 202 203 208 207 204 205 204 202 197 191 187 186 186 183 181 182 178 176 180 185 190 191 194 196 190 191 194 189 187 188 185 185 187 188 189 188 187 187 185 185 187 187 189 189 187 186 189 189 186 185 174 170 183 187 182 194 218 213
329 46 341 294 284 283 283 269 263 301 294 248 191 234 278 299 308 208 204 294 301 68 31 286 222 206 215 215 218 218 214 212 208 209 209 208 210 210 208 204 203 204 202 202 202 201 200 196 190 188 188 188 185 184 184 183 181 181 184 192 194 198 200 193 191 194 191 189 189 187 186 187 187 191 192 190 190 189 188 189 190 192 193 191 189 191 191 188 184 176 173 183 190 192 196 206 223
14 19 278 248 251 269 264 263 275 277 274 286 298 260 279 304 319 284 172 295 294 101 75 335 204 201 215 211 215 214 209 210 210 213 214 211 213 213 209 203 200 199 198 199 199 197 195 191 190 192 192 188 187 189 189 186 184 181 186 197 199 197 197 195 193 193 192 192 192 189 188 189 190 192 194 193 193 193 192 193 193 195 196 195 195 193 191 189 184 181 184 188 191 195 200 200 204
322 268 245 217 209 230 238 257 289 265 263 294 304 280 285 287 298 316 10 337 317 37 98 137 133 162 202 205 212 210 204 202 204 209 214 214 212 210 205 198 194 191 190 193 195 194 192 188 189 194 194 188 187 194 193 189 189 188 194 204 203 199 195 194 195 193 193 194 194 193 192 193 194 195 197 197 196 196 195 196 197 197 198 198 199 197 194 191 187 190 194 192 192 194 198 203 208
245 252 249 237 214 211 230 216 224 264 269 288 295 281 275 273 297 327 330 330 293 299 334 310 156 138 159 197 203 205 201 194 194 200 204 208 205 198 197 193 189 185 185 190 194 193 191 190 189 192 195 191 189 197 197 193 195 196 201 207 205 203 199 196 197 194 193 194 196 197 195 195 197 198 199 200 200 199 197 198 200 199 199 200 200 200 199 193 190 197 197 193 192 193 199 204 212
228 243 244 248 239 230 250 242 236 263 275 97 279 283 266 271 308 308 305 318 320 305 330 320 266 135 132 164 174 180 195 193 190 196 200 203 201 194 193 191 187 187 189 191 193 193 191 191 191 192 195 192 191 198 200 197 199 202 206 208 207 205 204 203 202 199 196 198 199 200 199 198 198 200 201 202 203 201 200 199 200 200 200 201 201 201 201 195 193 197 194 193 194 193 199 205 211
212 231 236 243 258 265 267 272 269 270 303 96 177 224 257 261 268 289 298 342 72 91 317 327 235 142 126 142 166 163 177 191 191 195 201 200 199 195 190 190 190 191 193 192 192 191 189 190 192 194 196 193 192 199 202 201 202 207 209 208 208 206 206 208 208 207 204 201 201 202 203 203 202 202 202 203 204 203 203 201 200 201 200 200 201 200 200 196 194 196 192 194 198 195 198 203 213
213 233 248 248 262 279 280 287 287 283 255 143 164 225 277 309 331 272 267 253 146 199 188 110 140 152 138 149 169 163 166 182 186 189 198 196 192 192 186 186 189 189 189 188 187 187 186 188 192 194 197 196 196 200 204 205 206 209 210 209 209 208 208 210 212 213 208 204 204 204 206 208 207 207 205 204 204 203 205 203 201 202 201 200 200 199 201 199 196 198 195 196 198 197 199 201 212
223 222 242 252 258 262 278 291 297 306 289 213 191 249 306 337 314 281 253 247 269 253 176 148 155 159 164 171 168 168 166 172 182 182 189 190 183 184 181 180 183 183 185 185 183 185 187 188 191 195 199 199 200 203 205 207 209 211 213 212 212 211 211 212 214 214 210 206 206 207 208 209 211 212 210 207 205 204 205 204 203 204 202 202 202 202 204 203 199 200 198 198 203 203 201 203 211
214 218 234 249 266 263 272 269 261 280 275 259 256 267 268 296 294 299 288 285 360 273 186 150 154 161 173 184 168 172 169 169 182 178 178 184 180 179 179 178 182 184 185 185 183 185 187 188 191 195 200 202 204 205 206 209 212 216 220 220 219 216 215 217 218 217 214 212 211 211 210 210 212 213 212 210 207 204 205 204 204 205 203 203 204 204 207 206 202 203 200 196 202 209 206 206 213
231 232 234 182 230 263 274 270 249 248 260 257 267 279 292 288 229 63 281 261 113 256 212 144 155 171 178 185 166 169 173 166 173 174 175 182 180 181 180 181 186 185 185 183 180 182 185 190 194 196 199 204 208 211 212 214 218 223 227 228 228 225 223 223 222 220 219 218 215 212 211 211 213 214 212 211 209 205 204 204 206 207 205 205 206 205 207 207 205 205 204 198 199 207 210 209 213
243 281 306 226 234 231 209 249 263 250 263 263 225 263 291 308 318 343 304 323 74 228 223 160 172 180 178 183 166 165 169 163 171 178 180 184 184 184 183 183 184 181 182 179 176 180 185 190 196 198 202 207 212 217 219 221 225 229 231 232 234 233 231 229 227 223 221 222 220 215 214 213 213 214 213 210 209 208 207 206 207 208 207 207 207 207 206 206 207 208 206 203 200 203 209 212 212
230 261 258 234 251 260 214 238 265 260 270 270 253 276 229 158 281 287 298 330 75 194 202 179 184 179 177 182 171 166 166 165 181 187 184 187 187 184 183 183 180 176 176 174 174 179 182 185 188 191 198 205 213 220 222 222 226 229 233 236 236 236 236 234 231 227 224 225 224 222 220 217 213 213 213 211 209 210 210 209 209 210 210 208 208 209 208 205 207 209 209 208 203 199 204 213 215
211 220 222 213 208 255 247 231 253 273 280 271 269 278 251 115 256 275 289 322 292 166 163 169 178 179 181 178 169 166 166 169 182 191 190 186 184 181 180 181 175 171 171 171 173 174 174 176 178 181 188 194 204 214 221 224 226 229 232 236 238 237 237 237 235 231 227 227 228 226 224 221 216 214 214 212 210 210 211 212 212 212 211 210 209 209 208 207 206 208 210 211 206 197 200 209 213
257 233 226 223 210 225 248 236 237 259 271 274 278 280 281 112 199 267 299 331 27 116 155 179 179 183 184 175 163 157 165 174 181 192 191 179 181 183 179 178 176 173 173 172 170 168 167 168 168 171 178 186 195 204 214 225 227 229 231 233 239 241 238 238 237 234 230 229 232 230 227 223 220 217 213 212 211 211 211 213 214 214 213 212 210 209 209 208 209 208 209 211 208 199 197 205 208